Weather History for Astrakhan, Russia

Change the Weather History Date:

Tuesday, August 27, 2013

  Actual Average Record
Temperature  
Mean Temperature 76 °F -  
Max Temperature 91 °F - - ()
Min Temperature 62 °F - - ()
Cooling Degree Days 12    
Growing Degree Days 26 (Base 50)    
Moisture  
Dew Point 54 °F    
Average Humidity 51    
Maximum Humidity 100    
Minimum Humidity 19    
Precipitation  
Precipitation 0.00 in - - ()
Sea Level Pressure  
Sea Level Pressure 29.83 in    
Wind  
Wind Speed 7 mph ()    
Max Wind Speed 18 mph    
Max Gust Speed 22 mph    
Visibility 2.9 miles    
Events      
T = Trace of Precipitation, MM = Missing Value Source: Averaged Metar Reports

Daily Weather History Graph

Daily Weather History Graph

Search for Another Location

Airport:

Trip Planner

Search our weather history database for the weather conditions in past years. The results will help you decide how hot, cold, wet, or windy it might be!

Date:

Astronomy

Aug. 27, 2013 Rise Set
Actual Time 6:01 AM MSK 7:36 PM MSK
Civil Twilight 5:30 AM MSK 8:07 PM MSK
Nautical Twilight 4:51 AM MSK 8:45 PM MSK
Astronomical Twilight 4:10 AM MSK 9:27 PM MSK
Moon 10:47 PM MSK (8/27) 1:03 PM MSK (8/27)
Length of Visible Light 14h 37m
Length of Day
13h 34m
Waning Gibbous, 60% of the Moon is Illuminated
Aug 27
Waning Gibbous
Aug 28
Last Quarter
Sep 5
New
Sep 12
First Quarter
Sep 19
Full

Hourly Weather History & Observations

Time (MSK) Temp. Heat Index Dew Point Humidity Pressure Visibility Wind Dir Wind Speed Gust Speed Precip Events Conditions
12:00 AM 69.8 °F - 64.4 °F 83% 29.80 in - South 4.5 mph - N/A   Clear
12:30 AM 68.0 °F - 64.4 °F 88% 29.80 in - South 4.5 mph - N/A   Clear
1:00 AM 68.0 °F - 64.4 °F 88% 29.80 in - South 4.5 mph - N/A   Clear
1:30 AM 68.0 °F - 66.2 °F 94% 29.80 in - South 4.5 mph - N/A   Clear
2:00 AM 68.0 °F - 66.2 °F 94% 29.80 in - South 4.5 mph - N/A   Clear
2:30 AM 68.0 °F - 66.2 °F 94% 29.80 in - Variable 2.2 mph - N/A   Clear
3:00 AM 68.0 °F - 66.2 °F 94% 29.80 in 1.2 mi South 4.5 mph - N/A   Mist
3:30 AM 68.0 °F - 66.2 °F 94% 29.80 in - Variable 2.2 mph - N/A   Mist
4:00 AM 68.0 °F - 66.2 °F 94% 29.80 in 4.3 mi Variable 2.2 mph - N/A   Unknown
4:30 AM 64.4 °F - 64.4 °F 100% 29.80 in 1.9 mi South 2.2 mph - N/A   Mist
5:00 AM 64.4 °F - 62.6 °F 94% 29.80 in - SW 2.2 mph - N/A   Mist
5:30 AM 62.6 °F - 62.6 °F 100% 29.80 in 4.3 mi West 4.5 mph - N/A   Unknown
6:00 AM 66.2 °F - 60.8 °F 83% 29.80 in - WNW 6.7 mph - N/A   Clear
6:30 AM 64.4 °F - 59.0 °F 83% 29.80 in - WNW 6.7 mph - N/A   Clear
7:00 AM 68.0 °F - 57.2 °F 68% 29.80 in - WNW 4.5 mph - N/A   Clear
7:30 AM 69.8 °F - 57.2 °F 64% 29.83 in - WNW 6.7 mph - N/A   Clear
8:00 AM 71.6 °F - 55.4 °F 57% 29.83 in - WNW 6.7 mph - N/A   Clear
8:30 AM 75.2 °F - 55.4 °F 50% 29.83 in - WNW 4.5 mph - N/A   Clear
9:00 AM 77.0 °F - 57.2 °F 50% 29.83 in - WNW 6.7 mph - N/A   Clear
9:30 AM 80.6 °F 80.3 °F 53.6 °F 39% 29.83 in - WNW 8.9 mph - N/A   Clear
10:00 AM 82.4 °F - 51.8 °F 35% 29.83 in - WNW 11.2 mph - N/A   Clear
10:30 AM 86.0 °F - 50.0 °F 29% 29.83 in - WNW 13.4 mph - N/A   Clear
11:00 AM 87.8 °F - 44.6 °F 22% 29.83 in - WNW 15.7 mph - N/A   Clear
11:30 AM 87.8 °F - 42.8 °F 21% 29.83 in - WNW 15.7 mph - N/A   Clear
12:00 PM 87.8 °F - 42.8 °F 21% 29.83 in - WNW 15.7 mph - N/A   Clear
12:30 PM 87.8 °F - 41.0 °F 19% 29.83 in - WNW 15.7 mph - N/A   Clear
1:00 PM 89.6 °F - 42.8 °F 20% 29.83 in - WNW 13.4 mph - N/A   Clear
1:30 PM 89.6 °F - 44.6 °F 21% 29.83 in - WNW 15.7 mph - N/A   Clear
2:00 PM 89.6 °F - 44.6 °F 21% 29.83 in - WNW 15.7 mph - N/A   Clear
2:30 PM 91.4 °F - 44.6 °F 20% 29.80 in - NW 17.9 mph - N/A   Clear
3:00 PM 91.4 °F - 44.6 °F 20% 29.80 in - NNW 11.2 mph - N/A   Clear
3:30 PM 91.4 °F - 48.2 °F 23% 29.80 in - NNW 13.4 mph - N/A   Clear
4:00 PM 89.6 °F - 48.2 °F 24% 29.80 in - NNW 13.4 mph - N/A   Clear
4:30 PM 89.6 °F - 46.4 °F 22% 29.83 in - NW 15.7 mph - N/A   Clear
5:00 PM 87.8 °F - 46.4 °F 24% 29.83 in - NNW 13.4 mph - N/A   Clear
5:30 PM 87.8 °F - 48.2 °F 25% 29.83 in - North 13.4 mph - N/A   Clear
6:00 PM 86.0 °F - 48.2 °F 27% 29.83 in - North 13.4 mph - N/A   Clear
6:30 PM 86.0 °F - 48.2 °F 27% 29.83 in - North 13.4 mph - N/A   Clear
7:00 PM 84.2 °F - 51.8 °F 33% 29.83 in - North 13.4 mph - N/A   Clear
7:30 PM 82.4 °F - 51.8 °F 35% 29.86 in - North 11.2 mph - N/A   Clear
8:00 PM 82.4 °F - 50.0 °F 32% 29.86 in - North 8.9 mph - N/A   Clear
8:30 PM 78.8 °F - 53.6 °F 42% 29.89 in - North 13.4 mph - N/A   Clear
9:00 PM 77.0 °F - 53.6 °F 44% 29.89 in - NNE 13.4 mph - N/A   Clear
9:30 PM 77.0 °F - 53.6 °F 44% 29.89 in - NNE 11.2 mph 22.4 mph N/A   Clear
10:00 PM 75.2 °F - 53.6 °F 47% 29.92 in - NNE 11.2 mph 22.4 mph N/A   Clear
10:30 PM 73.4 °F - 53.6 °F 50% 29.92 in - NNE 11.2 mph 22.4 mph N/A   Clear
11:00 PM 73.4 °F - 53.6 °F 50% 29.92 in - NNE 11.2 mph 22.4 mph N/A   Clear
11:30 PM 71.6 °F - 53.6 °F 53% 29.95 in - NNE 11.2 mph - N/A   Clear